KLM1059 EGSH-EHAM

Flight info

Callsign KLM1059
Flight time 0h 35m
Altitude 21000
Route BANEM DCT SONDO M183 REDFA
Aircraft E75L/M-SDE3GILORVW/S

Departure

Time 2026-05-05 15:25
Airport Norwich Airport (EGSH)

Arrival

Time 2026-05-05 16:00
Airport Amsterdam Airport Schiphol (EHAM)
Time Latitude Longitude Altitude Speed Heading
2026-05-05 15:12 52.67005 1.27801 105 ft 0 kts 217°
2026-05-05 15:17 52.67013 1.27810 105 ft 2 kts 201°
2026-05-05 15:17 52.67028 1.27814 106 ft 2 kts 178°
2026-05-05 15:18 52.67042 1.27809 106 ft 2 kts 155°
2026-05-05 15:18 52.67054 1.27795 106 ft 2 kts 132°
2026-05-05 15:18 52.67062 1.27775 106 ft 2 kts 109°
2026-05-05 15:18 52.67065 1.27751 106 ft 2 kts 86°
2026-05-05 15:19 52.67063 1.27727 106 ft 2 kts 88°
2026-05-05 15:19 52.67063 1.27717 106 ft 0 kts 88°
2026-05-05 15:20 52.67069 1.27744 107 ft 4 kts 58°
2026-05-05 15:21 52.67108 1.27801 106 ft 10 kts 36°
2026-05-05 15:21 52.67182 1.27895 104 ft 14 kts 39°
2026-05-05 15:21 52.67261 1.28006 104 ft 15 kts 36°
2026-05-05 15:21 52.67349 1.28114 103 ft 16 kts 37°
2026-05-05 15:22 52.67446 1.28230 101 ft 18 kts 36°
2026-05-05 15:22 52.67552 1.28357 99 ft 17 kts 25°
2026-05-05 15:22 52.67601 1.28272 100 ft 11 kts 269°
2026-05-05 15:22 52.67599 1.28141 102 ft 11 kts 269°
2026-05-05 15:23 52.67598 1.28018 105 ft 10 kts 269°
2026-05-05 15:23 52.67597 1.27876 110 ft 14 kts 269°
2026-05-05 15:23 52.67594 1.27654 115 ft 24 kts 269°
2026-05-05 15:23 52.67586 1.27314 119 ft 24 kts 265°
2026-05-05 15:24 52.67533 1.27140 119 ft 15 kts 268°
2026-05-05 15:24 52.67540 1.26964 119 ft 15 kts 306°
2026-05-05 15:24 52.67583 1.26996 120 ft 0 kts 87°
2026-05-05 15:24 52.67585 1.27207 120 ft 55 kts 89°
2026-05-05 15:25 52.67593 1.28272 100 ft 128 kts 89°
2026-05-05 15:25 52.67584 1.29901 491 ft 151 kts 87°
2026-05-05 15:25 52.67590 1.31660 1170 ft 160 kts 85°
2026-05-05 15:25 52.67609 1.33443 1980 ft 157 kts 84°
2026-05-05 15:26 52.67628 1.35200 2689 ft 157 kts 84°
2026-05-05 15:26 52.67645 1.36988 3372 ft 159 kts 84°
2026-05-05 15:26 52.67646 1.38790 4027 ft 161 kts 95°
2026-05-05 15:26 52.67111 1.40409 4638 ft 169 kts 141°
2026-05-05 15:27 52.66035 1.41094 5258 ft 171 kts 169°
2026-05-05 15:27 52.64885 1.41438 5908 ft 170 kts 170°
2026-05-05 15:27 52.63733 1.41780 6547 ft 169 kts 171°
2026-05-05 15:27 52.62588 1.42117 7162 ft 169 kts 171°
2026-05-05 15:28 52.61453 1.42450 7749 ft 168 kts 171°
2026-05-05 15:28 52.60309 1.42785 8323 ft 168 kts 170°
2026-05-05 15:28 52.59168 1.43118 8874 ft 168 kts 170°
2026-05-05 15:28 52.58026 1.43451 9405 ft 168 kts 170°
2026-05-05 15:29 52.56895 1.43780 9920 ft 168 kts 170°
2026-05-05 15:29 52.55748 1.44114 10440 ft 168 kts 170°
2026-05-05 15:29 52.54599 1.44449 10948 ft 169 kts 170°
2026-05-05 15:29 52.53449 1.44783 11444 ft 169 kts 170°
2026-05-05 15:30 52.52305 1.45115 11918 ft 170 kts 170°
2026-05-05 15:30 52.51181 1.45442 12265 ft 164 kts 170°
2026-05-05 15:30 52.50005 1.45815 12548 ft 173 kts 169°
2026-05-05 15:30 52.48821 1.46219 12795 ft 188 kts 171°
2026-05-05 15:31 52.47489 1.46572 13190 ft 194 kts 171°
2026-05-05 15:31 52.46091 1.46949 13333 ft 217 kts 170°
2026-05-05 15:31 52.44513 1.47389 13430 ft 243 kts 170°
2026-05-05 15:31 52.42751 1.47889 13470 ft 271 kts 169°
2026-05-05 15:32 52.40803 1.48447 13486 ft 301 kts 169°
2026-05-05 15:32 52.38649 1.49066 13557 ft 326 kts 169°
2026-05-05 15:32 52.36363 1.49724 13834 ft 342 kts 169°
2026-05-05 15:32 52.34025 1.50531 14437 ft 346 kts 158°
2026-05-05 15:33 52.31976 1.52520 15171 ft 345 kts 143°
2026-05-05 15:33 52.30082 1.54821 15905 ft 344 kts 143°
2026-05-05 15:33 52.28171 1.57157 16588 ft 346 kts 143°
2026-05-05 15:33 52.26234 1.59530 17256 ft 347 kts 143°
2026-05-05 15:34 52.24323 1.61870 17903 ft 348 kts 143°
2026-05-05 15:34 52.22376 1.64253 18502 ft 351 kts 142°
2026-05-05 15:34 52.20437 1.66625 19080 ft 354 kts 143°
2026-05-05 15:34 52.18465 1.69033 19627 ft 358 kts 143°
2026-05-05 15:35 52.16462 1.71477 20199 ft 361 kts 143°
2026-05-05 15:35 52.14458 1.73921 20766 ft 363 kts 143°
2026-05-05 15:35 52.12396 1.76430 20914 ft 374 kts 143°
2026-05-05 15:35 52.10364 1.79150 20928 ft 389 kts 131°
2026-05-05 15:36 52.08996 1.82990 20958 ft 393 kts 109°
2026-05-05 15:36 52.08655 1.87320 20957 ft 394 kts 86°
2026-05-05 15:36 52.08935 1.91767 20952 ft 394 kts 85°
2026-05-05 15:36 52.09170 1.96158 20947 ft 394 kts 85°
2026-05-05 15:37 52.09383 2.00607 20948 ft 394 kts 86°
2026-05-05 15:37 52.09587 2.05066 20948 ft 393 kts 86°
2026-05-05 15:37 52.09784 2.09457 20946 ft 392 kts 86°
2026-05-05 15:37 52.09978 2.13835 20944 ft 390 kts 86°
2026-05-05 15:38 52.10169 2.18210 20942 ft 390 kts 86°
2026-05-05 15:38 52.10360 2.22606 20943 ft 390 kts 86°
2026-05-05 15:38 52.10549 2.26995 20942 ft 391 kts 86°
2026-05-05 15:38 52.10735 2.31383 20941 ft 392 kts 86°
2026-05-05 15:39 52.10922 2.35821 20942 ft 392 kts 86°
2026-05-05 15:39 52.11107 2.40247 20940 ft 393 kts 86°
2026-05-05 15:39 52.11288 2.44650 20938 ft 393 kts 86°
2026-05-05 15:39 52.11744 2.49015 20927 ft 394 kts 69°
2026-05-05 15:40 52.12985 2.52936 20960 ft 396 kts 60°
2026-05-05 15:40 52.14367 2.56778 20940 ft 395 kts 59°
2026-05-05 15:40 52.15763 2.60642 20938 ft 394 kts 59°
2026-05-05 15:40 52.17148 2.64470 20935 ft 393 kts 59°
2026-05-05 15:41 52.18532 2.68302 20936 ft 392 kts 60°
2026-05-05 15:41 52.19916 2.72137 20935 ft 392 kts 60°
2026-05-05 15:41 52.21287 2.75945 20934 ft 392 kts 60°
2026-05-05 15:41 52.22666 2.79778 20931 ft 393 kts 60°
2026-05-05 15:42 52.24029 2.83572 20938 ft 393 kts 60°
2026-05-05 15:42 52.25412 2.87427 20935 ft 393 kts 60°
2026-05-05 15:42 52.26791 2.91281 20933 ft 394 kts 60°
2026-05-05 15:42 52.28160 2.95108 20927 ft 387 kts 60°
2026-05-05 15:43 52.29510 2.98888 20932 ft 382 kts 60°
2026-05-05 15:43 52.30833 3.02600 20934 ft 381 kts 60°
2026-05-05 15:43 52.32161 3.06333 20937 ft 382 kts 60°
2026-05-05 15:43 52.33510 3.10128 20714 ft 385 kts 61°
2026-05-05 15:44 52.34836 3.13865 20306 ft 383 kts 60°
2026-05-05 15:44 52.36153 3.17582 19894 ft 378 kts 60°
2026-05-05 15:44 52.37455 3.21261 19475 ft 371 kts 60°
2026-05-05 15:44 52.38724 3.24855 19075 ft 365 kts 60°
2026-05-05 15:45 52.39988 3.28437 18677 ft 363 kts 60°
2026-05-05 15:45 52.41258 3.32041 18278 ft 372 kts 60°
2026-05-05 15:45 52.42540 3.35686 17862 ft 367 kts 60°
2026-05-05 15:45 52.43802 3.39279 17459 ft 364 kts 60°
2026-05-05 15:46 52.44869 3.42979 17058 ft 361 kts 74°
2026-05-05 15:46 52.45476 3.46913 16675 ft 358 kts 76°
2026-05-05 15:46 52.46054 3.50882 16273 ft 357 kts 76°
2026-05-05 15:46 52.46627 3.54857 15886 ft 366 kts 76°
2026-05-05 15:47 52.47226 3.59030 15478 ft 388 kts 76°
2026-05-05 15:47 52.47839 3.63324 15031 ft 388 kts 76°
2026-05-05 15:47 52.48450 3.67614 14599 ft 385 kts 76°
2026-05-05 15:47 52.49047 3.71820 14161 ft 382 kts 76°
2026-05-05 15:48 52.49643 3.76029 13740 ft 377 kts 76°
2026-05-05 15:48 52.50237 3.80233 13338 ft 376 kts 76°
2026-05-05 15:48 52.50824 3.84401 12916 ft 375 kts 76°
2026-05-05 15:48 52.51401 3.88513 12520 ft 373 kts 76°
2026-05-05 15:49 52.51980 3.92645 12095 ft 369 kts 76°
2026-05-05 15:49 52.52227 3.96793 11695 ft 370 kts 96°
2026-05-05 15:49 52.51524 4.00837 11333 ft 369 kts 110°
2026-05-05 15:49 52.50589 4.04750 10913 ft 368 kts 111°
2026-05-05 15:50 52.49659 4.08587 10496 ft 364 kts 111°
2026-05-05 15:50 52.48729 4.12407 10104 ft 361 kts 111°
2026-05-05 15:50 52.47800 4.16203 9711 ft 356 kts 111°
2026-05-05 15:50 52.46894 4.19900 9325 ft 339 kts 110°
2026-05-05 15:51 52.46043 4.23365 8949 ft 323 kts 110°
2026-05-05 15:51 52.45222 4.26704 8595 ft 310 kts 110°
2026-05-05 15:51 52.44434 4.29904 8267 ft 298 kts 110°
2026-05-05 15:51 52.43670 4.33001 7944 ft 287 kts 110°
2026-05-05 15:52 52.42858 4.35896 7617 ft 279 kts 125°
2026-05-05 15:52 52.41356 4.37798 7371 ft 279 kts 158°
2026-05-05 15:52 52.39418 4.38225 6945 ft 283 kts 181°
2026-05-05 15:52 52.37495 4.38090 6594 ft 277 kts 182°
2026-05-05 15:53 52.35586 4.37898 6269 ft 270 kts 183°
2026-05-05 15:53 52.33751 4.37688 5980 ft 262 kts 183°
2026-05-05 15:53 52.31961 4.37472 5688 ft 255 kts 183°
2026-05-05 15:53 52.30213 4.37255 5473 ft 246 kts 183°
2026-05-05 15:54 52.28523 4.37044 5173 ft 244 kts 183°
2026-05-05 15:54 52.26835 4.36832 4887 ft 244 kts 182°
2026-05-05 15:54 52.25139 4.36690 4597 ft 244 kts 171°
2026-05-05 15:54 52.23672 4.37807 4410 ft 234 kts 131°
2026-05-05 15:55 52.22800 4.40025 4199 ft 231 kts 113°
2026-05-05 15:55 52.22081 4.42360 3930 ft 230 kts 112°
2026-05-05 15:55 52.21384 4.44690 3662 ft 228 kts 111°
2026-05-05 15:55 52.20930 4.47090 3404 ft 220 kts 90°
2026-05-05 15:56 52.20866 4.49572 3181 ft 219 kts 88°
2026-05-05 15:56 52.20821 4.52018 2936 ft 217 kts 85°
2026-05-05 15:56 52.21290 4.54289 2647 ft 211 kts 53°
2026-05-05 15:56 52.22117 4.56215 2375 ft 204 kts 54°
2026-05-05 15:57 52.22887 4.58134 2091 ft 199 kts 55°
2026-05-05 15:57 52.23602 4.59965 1979 ft 182 kts 55°
2026-05-05 15:57 52.24233 4.61606 1788 ft 165 kts 56°
2026-05-05 15:57 52.24823 4.63136 1540 ft 151 kts 55°
2026-05-05 15:58 52.25349 4.64486 1317 ft 135 kts 54°
2026-05-05 15:58 52.25822 4.65727 1129 ft 122 kts 56°
2026-05-05 15:58 52.26268 4.66893 983 ft 120 kts 55°
2026-05-05 15:58 52.26717 4.68058 835 ft 123 kts 56°
2026-05-05 15:59 52.27176 4.69247 672 ft 124 kts 56°
2026-05-05 15:59 52.27642 4.70437 513 ft 124 kts 57°
2026-05-05 15:59 52.28106 4.71638 343 ft 125 kts 57°
2026-05-05 15:59 52.28563 4.72831 160 ft 126 kts 58°
2026-05-05 16:00 52.29032 4.74049 4 ft 123 kts 57°
2026-05-05 16:00 52.29418 4.75049 -1 ft 81 kts 58°
2026-05-05 16:00 52.29663 4.75658 -5 ft 52 kts 47°
2026-05-05 16:00 52.29859 4.75874 -5 ft 27 kts 28°
2026-05-05 16:01 52.29987 4.75960 -2 ft 16 kts
2026-05-05 16:01 52.30043 4.75857 -1 ft 12 kts 237°
2026-05-05 16:01 52.30002 4.75760 -2 ft 12 kts 238°
2026-05-05 16:01 52.30005 4.75648 -2 ft 10 kts 325°
2026-05-05 16:02 52.30014 4.75584 0 ft 4 kts 248°
2026-05-05 16:02 52.30003 4.75553 0 ft 0 kts 237°